Simultaneous Nadir Overpasses (SNOs) Predictions

Prediction of SNOs between METOP-B and NOAA-19 Satellite Orbit:

Table of predicted SNOs for the next 14.0 days since TLE Epoch: 8/16/2014
Index Date (METOP-B) Time (METOP-B) Lat,Lon (METOP-B) SZA (METOP-B ) Date (NOAA-19) Time (NOAA-19) Lat,Lon (NOAA-19) SZA (NOAA-19 ) Distance(km) Time Diff (sec)
1 08/24/2014 16:04:00 74.43, -65.23 63.43 08/24/2014 16:02:48 74.44, -66.27 63.48 31.03 72
2 08/24/2014 16:54:47 -74.20, 101.52 116.77 08/24/2014 16:53:47 -74.21, 101.57 116.76 1.72 60
3 08/24/2014 17:45:26 74.21, -91.13 63.25 08/24/2014 17:44:47 74.23, -91.21 63.27 2.99 39
4 08/24/2014 18:36:09 -74.18, 76.13 116.76 08/24/2014 18:35:50 -74.19, 76.12 116.76 0.75 19
5 08/24/2014 19:26:49 74.14,-116.65 63.21 08/24/2014 19:26:49 74.15,-116.53 63.22 3.76 0
6
